ITY1013 LIPZ-LIRN

Flight info

Callsign ITY1013
Flight time 1h 3m
Altitude 19000
Route AKADO Y941 ARDAM/N0447F370 DCT LANLI DCT UTENO DCT OTRET DCT SUXUB DCT ERIKA
Aircraft A20N/M-SDE2E3FGHIRWXY/LB1

Departure

Time 2026-05-06 20:05
Airport Venice Marco Polo Airport (LIPZ)

Arrival

Time 2026-05-06 21:08
Airport Naples International Airport (LIRN)
Time Latitude Longitude Altitude Speed Heading
2026-05-06 19:43 45.50490 12.34213 17 ft 0 kts 268°
2026-05-06 19:53 45.50490 12.34223 17 ft 1 kts 268°
2026-05-06 19:53 45.50491 12.34237 18 ft 2 kts 268°
2026-05-06 19:53 45.50491 12.34258 18 ft 2 kts 268°
2026-05-06 19:53 45.50492 12.34279 19 ft 2 kts 264°
2026-05-06 19:54 45.50494 12.34300 18 ft 2 kts 263°
2026-05-06 19:54 45.50496 12.34321 17 ft 2 kts 251°
2026-05-06 19:54 45.50501 12.34338 17 ft 1 kts 235°
2026-05-06 19:54 45.50504 12.34345 18 ft 1 kts 221°
2026-05-06 19:55 45.50509 12.34351 18 ft 1 kts 194°
2026-05-06 19:55 45.50513 12.34353 18 ft 0 kts 179°
2026-05-06 19:59 45.50510 12.34353 18 ft 3 kts 179°
2026-05-06 19:59 45.50471 12.34350 17 ft 6 kts 184°
2026-05-06 19:59 45.50436 12.34347 18 ft 4 kts 182°
2026-05-06 19:59 45.50419 12.34348 18 ft 2 kts 178°
2026-05-06 20:00 45.50381 12.34350 19 ft 9 kts 177°
2026-05-06 20:00 45.50306 12.34354 19 ft 12 kts 178°
2026-05-06 20:00 45.50210 12.34360 15 ft 15 kts 177°
2026-05-06 20:00 45.50107 12.34314 14 ft 16 kts 217°
2026-05-06 20:01 45.50019 12.34207 11 ft 18 kts 220°
2026-05-06 20:01 45.49921 12.34082 11 ft 19 kts 222°
2026-05-06 20:01 45.49819 12.33954 10 ft 20 kts 221°
2026-05-06 20:01 45.49716 12.33825 14 ft 19 kts 221°
2026-05-06 20:02 45.49622 12.33699 14 ft 19 kts 223°
2026-05-06 20:02 45.49555 12.33613 15 ft 8 kts 214°
2026-05-06 20:02 45.49508 12.33620 16 ft 0 kts 149°
2026-05-06 20:03 45.49500 12.33627 17 ft 4 kts 143°
2026-05-06 20:03 45.49440 12.33718 14 ft 18 kts 129°
2026-05-06 20:03 45.49479 12.33858 12 ft 16 kts 41°
2026-05-06 20:04 45.49493 12.33876 12 ft 0 kts 42°
2026-05-06 20:04 45.49508 12.33895 10 ft 22 kts 41°
2026-05-06 20:04 45.49857 12.34345 8 ft 109 kts 42°
2026-05-06 20:05 45.50596 12.35292 26 ft 173 kts 41°
2026-05-06 20:05 45.51495 12.36450 837 ft 172 kts 47°
2026-05-06 20:05 45.52375 12.37732 1596 ft 188 kts 46°
2026-05-06 20:05 45.53348 12.39123 2156 ft 214 kts 52°
2026-05-06 20:06 45.53964 12.41083 2843 ft 221 kts 88°
2026-05-06 20:06 45.53837 12.43239 3678 ft 217 kts 107°
2026-05-06 20:06 45.53448 12.45359 4423 ft 222 kts 109°
2026-05-06 20:06 45.53070 12.47493 5111 ft 223 kts 107°
2026-05-06 20:07 45.52747 12.49689 5645 ft 229 kts 104°
2026-05-06 20:07 45.52244 12.51818 6210 ft 226 kts 128°
2026-05-06 20:07 45.51134 12.53317 6753 ft 218 kts 158°
2026-05-06 20:07 45.49722 12.53837 7302 ft 210 kts 186°
2026-05-06 20:08 45.48289 12.53541 7810 ft 213 kts 193°
2026-05-06 20:08 45.46766 12.53149 8020 ft 231 kts 193°
2026-05-06 20:08 45.45112 12.52741 8198 ft 253 kts 193°
2026-05-06 20:08 45.43332 12.52315 8875 ft 263 kts 192°
2026-05-06 20:09 45.41521 12.51890 9840 ft 264 kts 192°
2026-05-06 20:09 45.39668 12.51455 10474 ft 278 kts 192°
2026-05-06 20:09 45.37679 12.50983 10792 ft 301 kts 192°
2026-05-06 20:09 45.35545 12.50477 11226 ft 316 kts 192°
2026-05-06 20:10 45.33358 12.50008 12049 ft 320 kts 188°
2026-05-06 20:10 45.31116 12.49870 12877 ft 325 kts 184°
2026-05-06 20:10 45.28872 12.49813 13695 ft 328 kts 184°
2026-05-06 20:10 45.26564 12.49745 14371 ft 333 kts 184°
2026-05-06 20:11 45.24230 12.49671 15090 ft 337 kts 184°
2026-05-06 20:11 45.21874 12.49596 15812 ft 340 kts 184°
2026-05-06 20:11 45.19496 12.49519 16515 ft 344 kts 184°
2026-05-06 20:11 45.17083 12.49441 17208 ft 348 kts 184°
2026-05-06 20:12 45.14647 12.49362 17890 ft 352 kts 184°
2026-05-06 20:12 45.12185 12.49289 18419 ft 357 kts 184°
2026-05-06 20:12 45.09731 12.49339 18539 ft 356 kts 182°
2026-05-06 20:12 45.07257 12.49466 18626 ft 356 kts 181°
2026-05-06 20:13 45.04771 12.49591 18713 ft 358 kts 181°
2026-05-06 20:13 45.02275 12.49714 18807 ft 358 kts 181°
2026-05-06 20:13 44.99788 12.49825 18909 ft 358 kts 182°
2026-05-06 20:13 44.97298 12.49925 18920 ft 358 kts 182°
2026-05-06 20:14 44.94805 12.50021 18922 ft 357 kts 182°
2026-05-06 20:14 44.92320 12.50113 18925 ft 358 kts 182°
2026-05-06 20:14 44.89829 12.50206 18924 ft 358 kts 182°
2026-05-06 20:14 44.88175 12.50267 18920 ft 359 kts 182°
2026-05-06 20:15 44.85674 12.50360 18925 ft 360 kts 182°
2026-05-06 20:15 44.83169 12.50455 18925 ft 360 kts 181°
2026-05-06 20:15 44.79837 12.51181 18926 ft 366 kts 168°
2026-05-06 20:15 44.78237 12.51975 18976 ft 372 kts 161°
2026-05-06 20:16 44.75932 12.53710 19531 ft 377 kts 154°
2026-05-06 20:16 44.73675 12.55577 20232 ft 377 kts 155°
2026-05-06 20:16 44.71420 12.57411 20863 ft 380 kts 155°
2026-05-06 20:16 44.69123 12.59271 21478 ft 383 kts 155°
2026-05-06 20:17 44.66799 12.61151 22078 ft 386 kts 155°
2026-05-06 20:17 44.64459 12.63046 22616 ft 389 kts 154°
2026-05-06 20:17 44.62114 12.64945 23308 ft 388 kts 155°
2026-05-06 20:17 44.59763 12.66854 23758 ft 393 kts 155°
2026-05-06 20:18 44.57375 12.68787 24169 ft 398 kts 155°
2026-05-06 20:18 44.54967 12.70734 24627 ft 401 kts 156°
2026-05-06 20:18 44.52542 12.72693 25087 ft 404 kts 156°
2026-05-06 20:18 44.50101 12.74664 25530 ft 406 kts 156°
2026-05-06 20:19 44.47641 12.76647 25965 ft 409 kts 156°
2026-05-06 20:19 44.45164 12.78642 26383 ft 412 kts 156°
2026-05-06 20:19 44.42672 12.80648 26805 ft 415 kts 156°
2026-05-06 20:19 44.40163 12.82664 27180 ft 418 kts 156°
2026-05-06 20:20 44.37622 12.84703 27504 ft 422 kts 156°
2026-05-06 20:20 44.35091 12.86734 27917 ft 424 kts 156°
2026-05-06 20:20 44.32521 12.88795 28296 ft 427 kts 156°
2026-05-06 20:20 44.29936 12.90865 28659 ft 430 kts 156°
2026-05-06 20:21 44.27328 12.92951 29014 ft 432 kts 156°
2026-05-06 20:21 44.24714 12.95039 29313 ft 435 kts 156°
2026-05-06 20:21 44.22074 12.97145 29649 ft 438 kts 156°
2026-05-06 20:21 44.19424 12.99258 29994 ft 440 kts 156°
2026-05-06 20:22 44.16756 13.01383 30317 ft 442 kts 156°
2026-05-06 20:22 44.14082 13.03512 30662 ft 443 kts 156°
2026-05-06 20:22 44.11433 13.05618 30987 ft 444 kts 156°
2026-05-06 20:22 44.08750 13.07749 31373 ft 444 kts 156°
2026-05-06 20:23 44.06073 13.09874 31804 ft 442 kts 156°
2026-05-06 20:23 44.03404 13.11990 32247 ft 440 kts 157°
2026-05-06 20:23 44.00754 13.14088 32649 ft 438 kts 157°
2026-05-06 20:23 43.98112 13.16178 33074 ft 436 kts 157°
2026-05-06 20:24 43.95475 13.18260 33471 ft 435 kts 157°
2026-05-06 20:24 43.92826 13.20258 33858 ft 431 kts 159°
2026-05-06 20:24 43.90163 13.22153 34190 ft 430 kts 160°
2026-05-06 20:24 43.87493 13.24029 34458 ft 430 kts 160°
2026-05-06 20:25 43.84824 13.25912 34717 ft 430 kts 159°
2026-05-06 20:25 43.82162 13.27802 34966 ft 430 kts 159°
2026-05-06 20:25 43.79496 13.29702 35222 ft 430 kts 159°
2026-05-06 20:25 43.76833 13.31603 35459 ft 431 kts 159°
2026-05-06 20:26 43.74169 13.33505 35695 ft 431 kts 159°
2026-05-06 20:26 43.71543 13.35379 35925 ft 431 kts 159°
2026-05-06 20:26 43.68880 13.37277 36136 ft 431 kts 159°
2026-05-06 20:26 43.66210 13.39177 36369 ft 431 kts 159°
2026-05-06 20:27 43.63548 13.41070 36571 ft 431 kts 159°
2026-05-06 20:27 43.60879 13.42967 36763 ft 431 kts 159°
2026-05-06 20:27 43.58204 13.44865 36918 ft 431 kts 159°
2026-05-06 20:27 43.55537 13.46756 36944 ft 431 kts 159°
2026-05-06 20:28 43.50215 13.50525 36944 ft 430 kts 159°
2026-05-06 20:28 43.44875 13.54295 36954 ft 431 kts 159°
2026-05-06 20:29 43.39530 13.58065 36947 ft 432 kts 159°
2026-05-06 20:29 43.34203 13.61814 36955 ft 432 kts 159°
2026-05-06 20:30 43.26165 13.67444 36951 ft 431 kts 161°
2026-05-06 20:30 43.23387 13.68867 36946 ft 422 kts 172°
2026-05-06 20:31 43.20524 13.69627 36946 ft 418 kts 175°
2026-05-06 20:31 43.14785 13.70940 36932 ft 418 kts 176°
2026-05-06 20:32 43.09037 13.72195 36930 ft 418 kts 176°
2026-05-06 20:32 43.03284 13.73434 36934 ft 418 kts 176°
2026-05-06 20:33 42.97561 13.74665 36939 ft 419 kts 176°
2026-05-06 20:33 42.91795 13.75902 36932 ft 420 kts 176°
2026-05-06 20:33 42.88895 13.76523 36717 ft 421 kts 176°
2026-05-06 20:34 42.86002 13.77144 36450 ft 420 kts 176°
2026-05-06 20:34 42.83119 13.77762 36200 ft 419 kts 176°
2026-05-06 20:34 42.80235 13.78379 35939 ft 419 kts 177°
2026-05-06 20:34 42.77351 13.78995 35659 ft 419 kts 177°
2026-05-06 20:35 42.74464 13.79611 35425 ft 419 kts 177°
2026-05-06 20:35 42.71582 13.80225 35169 ft 419 kts 177°
2026-05-06 20:35 42.68696 13.80839 34921 ft 419 kts 177°
2026-05-06 20:35 42.65846 13.81446 34688 ft 420 kts 177°
2026-05-06 20:36 42.62966 13.82059 34442 ft 419 kts 177°
2026-05-06 20:36 42.60087 13.82671 34195 ft 418 kts 178°
2026-05-06 20:36 42.57211 13.83281 33934 ft 420 kts 178°
2026-05-06 20:36 42.54312 13.83894 33672 ft 422 kts 178°
2026-05-06 20:37 42.51399 13.84510 33407 ft 423 kts 178°
2026-05-06 20:37 42.48491 13.85126 33139 ft 423 kts 177°
2026-05-06 20:37 42.45578 13.85742 32846 ft 424 kts 177°
2026-05-06 20:37 42.42655 13.86353 32582 ft 425 kts 177°
2026-05-06 20:38 42.39727 13.86971 32325 ft 425 kts 176°
2026-05-06 20:38 42.36841 13.87582 32058 ft 427 kts 177°
2026-05-06 20:38 42.33895 13.88204 31811 ft 430 kts 177°
2026-05-06 20:38 42.30931 13.88828 31563 ft 430 kts 177°
2026-05-06 20:39 42.27967 13.89453 31303 ft 432 kts 177°
2026-05-06 20:39 42.24993 13.90077 31067 ft 433 kts 177°
2026-05-06 20:39 42.22010 13.90703 30819 ft 433 kts 177°
2026-05-06 20:39 42.19033 13.91327 30571 ft 433 kts 177°
2026-05-06 20:40 42.16055 13.91951 30342 ft 431 kts 177°
2026-05-06 20:40 42.13119 13.92568 30108 ft 425 kts 177°
2026-05-06 20:40 42.10241 13.93172 29826 ft 424 kts 177°
2026-05-06 20:40 42.07404 13.93762 29551 ft 424 kts 177°
2026-05-06 20:41 42.04531 13.94360 29274 ft 422 kts 177°
2026-05-06 20:41 42.01628 13.94965 28906 ft 421 kts 177°
2026-05-06 20:41 41.98729 13.95568 28368 ft 419 kts 176°
2026-05-06 20:41 41.95862 13.96166 27824 ft 414 kts 176°
2026-05-06 20:42 41.93035 13.96761 27294 ft 408 kts 176°
2026-05-06 20:42 41.90252 13.97338 26789 ft 401 kts 176°
2026-05-06 20:42 41.87507 13.97905 26262 ft 396 kts 176°
2026-05-06 20:42 41.84830 13.98457 25757 ft 392 kts 176°
2026-05-06 20:43 41.82141 13.99011 25252 ft 389 kts 176°
2026-05-06 20:43 41.79480 13.99559 24744 ft 385 kts 176°
2026-05-06 20:43 41.76834 14.00103 24210 ft 383 kts 175°
2026-05-06 20:43 41.74208 14.00644 23735 ft 380 kts 175°
2026-05-06 20:44 41.71596 14.01182 23151 ft 378 kts 175°
2026-05-06 20:44 41.69021 14.01714 22684 ft 372 kts 175°
2026-05-06 20:44 41.66472 14.02240 22182 ft 368 kts 175°
2026-05-06 20:44 41.63978 14.02959 21676 ft 369 kts 165°
2026-05-06 20:45 41.61655 14.04493 21149 ft 374 kts 150°
2026-05-06 20:45 41.59496 14.07085 20560 ft 378 kts 137°
2026-05-06 20:45 41.57906 14.09417 20056 ft 377 kts 137°
2026-05-06 20:45 41.56178 14.11948 19545 ft 375 kts 137°
2026-05-06 20:46 41.54416 14.14518 18977 ft 375 kts 137°
2026-05-06 20:46 41.52654 14.17077 18456 ft 374 kts 137°
2026-05-06 20:46 41.50888 14.19641 17868 ft 373 kts 137°
2026-05-06 20:46 41.49145 14.22170 17520 ft 364 kts 137°
2026-05-06 20:47 41.47465 14.24613 17396 ft 351 kts 137°
2026-05-06 20:47 41.45847 14.26961 17279 ft 338 kts 138°
2026-05-06 20:47 41.44282 14.29224 17163 ft 326 kts 138°
2026-05-06 20:47 41.42775 14.31402 17051 ft 313 kts 139°
2026-05-06 20:48 41.41245 14.33310 16935 ft 297 kts 144°
2026-05-06 20:48 41.39711 14.35089 16700 ft 286 kts 144°
2026-05-06 20:48 41.38224 14.36821 16235 ft 282 kts 144°
2026-05-06 20:48 41.36763 14.38523 15893 ft 276 kts 144°
2026-05-06 20:49 41.35327 14.40195 15621 ft 272 kts 144°
2026-05-06 20:49 41.33906 14.41833 15345 ft 268 kts 147°
2026-05-06 20:49 41.32378 14.43199 15079 ft 263 kts 153°
2026-05-06 20:49 41.30812 14.44475 14806 ft 263 kts 152°
2026-05-06 20:50 41.29270 14.45746 14539 ft 259 kts 152°
2026-05-06 20:50 41.27746 14.47006 14278 ft 258 kts 152°
2026-05-06 20:50 41.26142 14.48114 14029 ft 262 kts 168°
2026-05-06 20:50 41.24375 14.48213 13755 ft 257 kts 195°
2026-05-06 20:51 41.22798 14.47200 13477 ft 251 kts 221°
2026-05-06 20:51 41.21718 14.45376 13238 ft 254 kts 237°
2026-05-06 20:51 41.20801 14.43371 12977 ft 253 kts 237°
2026-05-06 20:51 41.19890 14.41390 12719 ft 249 kts 237°
2026-05-06 20:52 41.18963 14.39456 12462 ft 248 kts 230°
2026-05-06 20:52 41.17641 14.38048 12218 ft 244 kts 204°
2026-05-06 20:52 41.15981 14.37595 11969 ft 247 kts 179°
2026-05-06 20:52 41.14328 14.38197 11706 ft 251 kts 154°
2026-05-06 20:53 41.12839 14.39424 11457 ft 251 kts 152°
2026-05-06 20:53 41.11367 14.40657 11205 ft 249 kts 152°
2026-05-06 20:53 41.09918 14.41917 10944 ft 250 kts 144°
2026-05-06 20:53 41.08881 14.43807 10684 ft 263 kts 115°
2026-05-06 20:54 41.08624 14.46201 10426 ft 273 kts 87°
2026-05-06 20:54 41.09232 14.48604 10160 ft 279 kts 63°
2026-05-06 20:54 41.10277 14.50779 9871 ft 280 kts 57°
2026-05-06 20:54 41.11404 14.52880 9559 ft 278 kts 56°
2026-05-06 20:55 41.12505 14.54976 9273 ft 276 kts 58°
2026-05-06 20:55 41.13571 14.57100 8993 ft 276 kts 59°
2026-05-06 20:55 41.14597 14.59222 8722 ft 272 kts 59°
2026-05-06 20:55 41.15601 14.61350 8441 ft 272 kts 60°
2026-05-06 20:56 41.16587 14.63484 8165 ft 270 kts 60°
2026-05-06 20:56 41.17561 14.65598 7891 ft 270 kts 60°
2026-05-06 20:56 41.18540 14.67730 7550 ft 271 kts 60°
2026-05-06 20:56 41.19519 14.69853 7287 ft 268 kts 60°
2026-05-06 20:57 41.20400 14.71998 7090 ft 259 kts 75°
2026-05-06 20:57 41.20540 14.74306 7009 ft 248 kts 106°
2026-05-06 20:57 41.19832 14.76292 6987 ft 234 kts 137°
2026-05-06 20:57 41.18566 14.77550 6985 ft 230 kts 155°
2026-05-06 20:58 41.17144 14.78502 6983 ft 228 kts 158°
2026-05-06 20:58 41.15723 14.79430 6984 ft 228 kts 157°
2026-05-06 20:58 41.14265 14.80191 6984 ft 222 kts 177°
2026-05-06 20:58 41.12778 14.79876 6985 ft 220 kts 209°
2026-05-06 20:59 41.11649 14.78550 6986 ft 220 kts 236°
2026-05-06 20:59 41.10904 14.76780 6983 ft 216 kts 239°
2026-05-06 20:59 41.10184 14.75125 6982 ft 199 kts 237°
2026-05-06 20:59 41.09485 14.73590 6987 ft 195 kts 236°
2026-05-06 21:00 41.08771 14.72062 6991 ft 195 kts 236°
2026-05-06 21:00 41.08052 14.70540 6992 ft 194 kts 236°
2026-05-06 21:00 41.07336 14.69024 6989 ft 194 kts 236°
2026-05-06 21:00 41.06619 14.67502 6993 ft 195 kts 236°
2026-05-06 21:01 41.05905 14.65983 6990 ft 195 kts 236°
2026-05-06 21:01 41.05189 14.64452 6881 ft 194 kts 236°
2026-05-06 21:01 41.04483 14.62935 6597 ft 195 kts 236°
2026-05-06 21:01 41.03781 14.61422 6273 ft 196 kts 237°
2026-05-06 21:02 41.03078 14.59867 5925 ft 197 kts 237°
2026-05-06 21:02 41.02356 14.58322 5615 ft 197 kts 237°
2026-05-06 21:02 41.01638 14.56790 5323 ft 194 kts 237°
2026-05-06 21:02 41.00920 14.55260 5050 ft 197 kts 237°
2026-05-06 21:03 41.00192 14.53714 4758 ft 199 kts 237°
2026-05-06 21:03 40.99458 14.52150 4453 ft 200 kts 237°
2026-05-06 21:03 40.98735 14.50611 4200 ft 194 kts 237°
2026-05-06 21:03 40.98026 14.49101 3879 ft 192 kts 237°
2026-05-06 21:04 40.97327 14.47614 3593 ft 188 kts 237°
2026-05-06 21:04 40.96639 14.46149 3319 ft 186 kts 237°
2026-05-06 21:04 40.95962 14.44711 3041 ft 182 kts 237°
2026-05-06 21:04 40.95320 14.43344 2793 ft 166 kts 237°
2026-05-06 21:05 40.94740 14.42112 2538 ft 150 kts 238°
2026-05-06 21:05 40.94212 14.40991 2327 ft 138 kts 238°
2026-05-06 21:05 40.93717 14.39938 2131 ft 138 kts 238°
2026-05-06 21:05 40.93211 14.38862 1918 ft 137 kts 238°
2026-05-06 21:06 40.92711 14.37802 1726 ft 135 kts 238°
2026-05-06 21:06 40.92223 14.36764 1518 ft 131 kts 237°
2026-05-06 21:06 40.91741 14.35741 1321 ft 131 kts 237°
2026-05-06 21:06 40.91261 14.34722 1122 ft 130 kts 236°
2026-05-06 21:07 40.90780 14.33700 936 ft 130 kts 237°
2026-05-06 21:07 40.90298 14.32677 732 ft 132 kts 237°
2026-05-06 21:07 40.89814 14.31649 532 ft 131 kts 236°
2026-05-06 21:07 40.89329 14.30622 353 ft 132 kts 236°
2026-05-06 21:08 40.88861 14.29635 247 ft 109 kts 239°
2026-05-06 21:08 40.88623 14.29121 266 ft 22 kts 238°
2026-05-06 21:08 40.88556 14.28981 272 ft 27 kts 237°
2026-05-06 21:08 40.88440 14.28766 281 ft 21 kts 204°
2026-05-06 21:09 40.88370 14.28804 280 ft 10 kts 140°
2026-05-06 21:09 40.88303 14.28859 279 ft 8 kts 149°
2026-05-06 21:09 40.88302 14.28861 279 ft 0 kts 149°
2026-05-06 21:09 40.88296 14.28865 279 ft 2 kts 149°
2026-05-06 21:10 40.88283 14.28875 279 ft 4 kts 149°
2026-05-06 21:10 40.88239 14.28902 279 ft 10 kts 169°
2026-05-06 21:10 40.88185 14.28852 282 ft 9 kts 229°
2026-05-06 21:10 40.88150 14.28789 284 ft 7 kts 234°
2026-05-06 21:11 40.88123 14.28741 286 ft 6 kts 234°
2026-05-06 21:11 40.88100 14.28700 288 ft 5 kts 233°
2026-05-06 21:11 40.88077 14.28660 290 ft 5 kts 232°
2026-05-06 21:11 40.88052 14.28617 293 ft 8 kts 232°
2026-05-06 21:12 40.88006 14.28540 297 ft 12 kts 230°
2026-05-06 21:12 40.87949 14.28470 299 ft 10 kts 224°
2026-05-06 21:12 40.87926 14.28404 302 ft 5 kts 217°
2026-05-06 21:12 40.87899 14.28408 302 ft 4 kts 173°
2026-05-06 21:13 40.87864 14.28405 303 ft 4 kts 189°
2026-05-06 21:13 40.87849 14.28402 302 ft 0 kts 188°